Location: Zagreb
(45.8000°N, 16.0000°E)
Time: 12:27:31
(UTC+01:00)

Transit 2A Rocket - Pass Details

Date: 03 October 2020
Orbit: 586 x 916 km, 66.7° (Epoch: 28 October)

Event Time Altitude Azimuth Distance (km) Brightness Sun altitude
Rises 18:35:07 0° 259° (W) 3,545 11.3 -1.4°
Reaches altitude 10° 18:38:15 10° 274° (W) 2,609 9.8 -2.0°
Maximum altitude 18:42:56 22° 324° (NW) 1,863 7.5 -2.8°
Drops below altitude 10° 18:47:32 10° 14° (NNE) 2,557 7.5 -3.6°
Sets 18:50:35 0° 30° (NNE) 3,457 8.1 -4.1°
